Time,TemperatureF,DewpointF,PressureIn,WindDirection,WindDirectionDegrees,WindSpeedMPH,WindSpeedGustMPH,Humidity,HourlyPrecipIn,Conditions,Clouds,dailyrainin,SoftwareType,DateUTC
2013-08-19 00:12:00,59.0,-99.9,-100.00,North,0,0.0,-999.0,-999,-99.99,,,-99.99,,2013-08-19 07:12:00,
2013-08-19 01:11:00,59.0,-99.9,-100.00,WNW,293,0.0,-999.0,-999,-99.99,,,-99.99,,2013-08-19 08:11:00,
2013-08-19 02:11:00,58.0,-99.9,-100.00,North,0,0.0,-999.0,-999,-99.99,,,-99.99,,2013-08-19 09:11:00,
2013-08-19 03:12:00,57.0,-99.9,-100.00,North,0,0.0,-999.0,-999,-99.99,,,-99.99,,2013-08-19 10:12:00,
2013-08-19 03:20:00,57.0,-99.9,-100.00,SE,146,1.0,-999.0,-999,-99.99,,,-99.99,,2013-08-19 10:20:00,
2013-08-19 04:12:00,57.0,-99.9,-100.00,SE,146,1.0,-999.0,-999,-99.99,,,-99.99,,2013-08-19 11:12:00,
2013-08-19 04:20:00,56.0,-99.9,-100.00,NNW,330,0.0,-999.0,-999,-99.99,,,-99.99,,2013-08-19 11:20:00,
2013-08-19 05:11:00,56.0,-99.9,-100.00,NNW,330,0.0,-999.0,-999,-99.99,,,-99.99,,2013-08-19 12:11:00,
2013-08-19 06:13:00,56.0,-99.9,-100.00,SE,141,6.0,-999.0,-999,-99.99,,,-99.99,,2013-08-19 13:13:00,
2013-08-19 06:20:00,57.0,-99.9,-100.00,SSW,209,1.0,-999.0,-999,-99.99,,,-99.99,,2013-08-19 13:20:00,
2013-08-19 07:11:00,57.0,-99.9,-100.00,SSW,209,1.0,-999.0,-999,-99.99,,,-99.99,,2013-08-19 14:11:00,
2013-08-19 07:20:00,58.0,-99.9,-100.00,SSE,156,6.0,-999.0,-999,-99.99,,,-99.99,,2013-08-19 14:20:00,
2013-08-19 08:11:00,58.0,-99.9,-100.00,SSE,156,6.0,-999.0,-999,-99.99,,,-99.99,,2013-08-19 15:11:00,
2013-08-19 09:13:00,60.0,-99.9,-100.00,South,180,2.0,-999.0,-999,-99.99,,,-99.99,,2013-08-19 16:13:00,
2013-08-19 09:20:00,60.0,-99.9,-100.00,SSE,152,2.0,-999.0,-999,-99.99,,,-99.99,,2013-08-19 16:20:00,
2013-08-19 10:13:00,60.0,-99.9,-100.00,SSE,152,2.0,-999.0,-999,-99.99,,,-99.99,,2013-08-19 17:13:00,
2013-08-19 10:20:00,63.0,-99.9,-100.00,SE,132,3.0,-999.0,-999,-99.99,,,-99.99,,2013-08-19 17:20:00,
2013-08-19 11:19:00,63.0,-99.9,-100.00,SE,132,3.0,-999.0,-999,-99.99,,,-99.99,,2013-08-19 18:19:00,
2013-08-19 11:20:00,-999.0,-99.9,-100.00,SE,132,6.0,-999.0,-999,-99.99,,,-99.99,,2013-08-19 18:20:00,
2013-08-19 12:15:00,64.0,-99.9,-100.00,SE,124,6.0,-999.0,-999,-99.99,,,-99.99,,2013-08-19 19:15:00,
2013-08-19 12:16:00,62.0,-99.9,-100.00,SE,132,6.0,-999.0,-999,-99.99,,,-99.99,,2013-08-19 19:16:00,
2013-08-19 13:15:00,67.0,-99.9,-100.00,ENE,59,3.0,-999.0,-999,-99.99,,,-99.99,,2013-08-19 20:15:00,
2013-08-19 15:15:00,69.0,-99.9,-100.00,North,3,9.0,-999.0,-999,-99.99,,,-99.99,,2013-08-19 22:15:00,
2013-08-19 16:20:00,69.0,-99.9,-100.00,NNW,337,6.0,-999.0,-999,-99.99,,,-99.99,,2013-08-19 23:20:00,
2013-08-19 17:11:00,69.0,-99.9,-100.00,NNW,337,6.0,-999.0,-999,-99.99,,,-99.99,,2013-08-20 00:11:00,
2013-08-19 17:20:00,69.0,-99.9,-100.00,NNW,347,14.0,-999.0,-999,-99.99,,,-99.99,,2013-08-20 00:20:00,
2013-08-19 18:11:00,69.0,-99.9,-100.00,NNW,347,14.0,-999.0,-999,-99.99,,,-99.99,,2013-08-20 01:11:00,
2013-08-19 19:11:00,66.0,-99.9,-100.00,NNW,337,7.0,-999.0,-999,-99.99,,,-99.99,,2013-08-20 02:11:00,
2013-08-19 20:11:00,65.0,-99.9,-100.00,NNW,332,6.0,-999.0,-999,-99.99,,,-99.99,,2013-08-20 03:11:00,
2013-08-19 21:13:00,63.0,-99.9,-100.00,NNW,338,5.0,-999.0,-999,-99.99,,,-99.99,,2013-08-20 04:13:00,
2013-08-19 22:12:00,63.0,-99.9,-100.00,NNW,331,8.0,-999.0,-999,-99.99,,,-99.99,,2013-08-20 05:12:00,
2013-08-19 23:11:00,62.0,-99.9,-100.00,WNW,303,8.0,-999.0,-999,-99.99,,,-99.99,,2013-08-20 06:11:00,